Location: Coffee Creek Observatory
(38.8077°N, 94.7179°W)
Time: 22:23:22
(UTC-05:00)

Amateur Radio Satellites - All Passes

Search period start: 24 May 2015 21:53
Search period end: 25 May 2015 21:53
Location: Coffee Creek Observatory, 38.8077°N, 94.7179°W

Satellite Date Start Highest point End Downlink Frequencies (MHz)
Time Altitude Azimuth
COMPASS 1 24 May 21:54:06 21:58:12 52° 261° (W) 22:02:18 437.405
AAUSAT CUBESAT 2 24 May 22:08:37 22:12:35 41° 262° (W) 22:16:32 437.432
CUBEBUG 2 24 May 22:12:16 22:17:02 83° 75° (ENE) 22:21:50 437.445
HO-68 24 May 22:23:17 22:29:27 29° 266° (W) 22:35:28 435.675
ZACube-1 24 May 22:25:12 22:29:47 73° 76° (ENE) 22:34:23 437.345
UKube-1 24 May 22:32:59 22:37:00 40° 72° (ENE) 22:41:05 .
ESTCUBE 1 24 May 22:37:19 22:39:33 14° 66° (ENE) 22:41:59 437.505/2401.250
50 SAT 24 May 22:37:23 22:40:34 23° 70° (ENE) 22:43:49 437.505
DX 1 24 May 22:37:49 22:41:59 49° 73° (ENE) 22:46:14 434.975-435.025
HUMSAT D 24 May 22:40:20 22:44:29 47° 74° (ENE) 22:48:40 437.325/437.525
CINEMA 3 24 May 22:41:20 22:45:34 27° 267° (W) 22:49:46 145.822/145.860
VELOX 1 24 May 22:42:44 22:46:25 27° 70° (ENE) 22:50:13 145.980
Oscar 11 24 May 22:44:18 22:48:21 37° 263° (W) 22:52:22 145.826/435.025
DOVE 4 24 May 22:47:06 22:49:39 13° 273° (W) 22:51:56 437.250
CUBEBUG 1 24 May 22:49:26 22:52:00 16° 67° (ENE) 22:54:45 437.445
DELFI C3 24 May 22:52:50 22:56:36 37° 263° (W) 23:00:22 145.870
Cosmos 2491 24 May 23:01:49 23:05:21 12° 304° (NW) 23:08:10 435.465 / 435.565
AIST 1 24 May 23:04:07 23:05:29 11° 292° (WNW) 23:06:35
ANTELSAT 24 May 23:04:21 23:07:31 20° 92° (E) 23:10:45 437.575/2403.000
UWE-3 24 May 23:05:39 23:09:54 33° 264° (W) 23:14:06 435.000/436.395/437.385
AISAT 24 May 23:12:40 23:17:02 60° 74° (ENE) 23:21:27 437.250
FUNcube-1 24 May 23:22:46 23:26:44 27° 265° (W) 23:30:38 145.935
NANOSAT C BR1 24 May 23:26:20 23:28:45 15° 91° (E) 23:31:18 145.865
GONETS M04 24 May 23:31:02 23:35:43 16° 59° (ENE) 23:40:57
QB50P2 24 May 23:32:04 23:34:59 18° 92° (E) 23:38:01 145.880/145.840
TIGRISAT 24 May 23:37:36 23:41:50 46° 99° (E) 23:45:58 435.000
SPROUT 24 May 23:38:07 23:40:25 15° 67° (ENE) 23:42:55 437.525
DANDE 24 May 23:41:49 23:46:55 19° 58° (ENE) 23:51:49 436.750
POPSAT HIP 1 24 May 23:44:32 23:48:02 24° 94° (E) 23:51:35 437.405
Cosmos 2504 24 May 23:47:49 23:53:19 23° 275° (W) 23:58:31 435.465 / 435.565
DUCHIFAT 1 24 May 23:48:27 23:52:03 26° 95° (E) 23:55:41 145.980
ISS 24 May 23:55:51 23:58:12 19° 132° (SE) 00:00:37 145.825
UNISAT 6 24 May 23:56:48 00:01:14 81° 101° (E) 00:05:33 437.425
TISAT 1 25 May 00:09:53 00:13:15 24° 69° (ENE) 00:16:41 437.305
UKube-1 25 May 00:10:33 00:13:21 16° 268° (W) 00:16:01 .
ESTCUBE 1 25 May 00:11:38 00:16:01 54° 260° (W) 00:20:26 437.505/2401.250
50 SAT 25 May 00:11:53 00:15:13 24° 265° (W) 00:18:28 437.505
DX 1 25 May 00:16:20 00:18:35 13° 270° (W) 00:20:38 434.975-435.025
HUMSAT D 25 May 00:18:10 00:20:33 14° 270° (W) 00:22:42 437.325/437.525
VELOX 1 25 May 00:19:13 00:22:56 26° 265° (W) 00:26:37 145.980
BUGSAT 1 25 May 00:22:17 00:26:23 45° 98° (E) 00:30:28 437.445
CUBEBUG 1 25 May 00:23:52 00:28:02 44° 261° (W) 00:32:14 437.445
QB50P1 25 May 00:28:17 00:32:36 82° 102° (ESE) 00:36:52 145.935-145.965
POLYITAN 1 25 May 00:28:55 00:33:14 84° 102° (ESE) 00:37:30 437.675
CUSAT 1 25 May 00:28:59 00:36:09 48° 72° (ENE) 00:41:51 437.405
ANTELSAT 25 May 00:40:27 00:44:26 33° 289° (WNW) 00:48:16 437.575/2403.000
AISAT 25 May 00:52:30 00:54:07 11° 271° (W) 00:55:25 437.250
NANOSAT C BR1 25 May 01:00:46 01:04:50 42° 287° (WNW) 01:08:50 145.865
QB50P2 25 May 01:07:06 01:11:01 35° 288° (WNW) 01:14:52 145.880/145.840
SPROUT 25 May 01:11:58 01:16:09 48° 261° (W) 01:20:22 437.525
TIGRISAT 25 May 01:15:34 01:18:13 15° 294° (WNW) 01:20:41 435.000
POPSAT HIP 1 25 May 01:20:15 01:23:52 26° 290° (WNW) 01:27:24 437.405
DANDE 25 May 01:23:31 01:31:37 85° 262° (W) 01:38:00 436.750
DUCHIFAT 1 25 May 01:24:17 01:27:46 24° 291° (WNW) 01:31:11 145.980
GONETS M04 25 May 01:25:25 01:34:17 83° 82° (E) 01:43:01
ITUPSAT 1 25 May 01:28:41 01:32:42 29° 69° (ENE) 01:36:49 437.325
ISS 25 May 01:31:20 01:34:26 40° 327° (NNW) 01:37:33 145.825
BEESAT 25 May 01:37:37 01:41:54 36° 71° (ENE) 01:46:16 436.000
TISAT 1 25 May 01:45:16 01:48:55 27° 265° (W) 01:52:32 437.305
SWISSCUBE 25 May 01:45:27 01:49:59 47° 72° (ENE) 01:54:33 437.505
O/OREOS (USA 219) 25 May 01:52:32 01:56:10 24° 59° (ENE) 01:59:51 437.305
PCSat 25 May 01:57:55 02:03:18 76° 117° (ESE) 02:08:45 145.827
BUGSAT 1 25 May 01:58:55 02:01:31 15° 293° (WNW) 02:03:56 437.445
CUSAT 1 25 May 02:12:24 02:18:22 27° 275° (W) 02:23:10 437.405
KKS-1 25 May 02:20:39 02:23:32 18° 67° (ENE) 02:26:34 437.445
Cosmos 2499 25 May 02:29:17 02:35:41 37° 74° (ENE) 02:42:14 435.465 / 435.565
Oscar 19 25 May 02:42:20 02:47:29 66° 101° (E) 02:52:35 437.125/150
ITAMSAT 1 25 May 02:51:59 02:56:00 23° 93° (E) 03:00:08 435.822/435.867
VERMONT LUNAR 25 May 02:59:10 03:01:58 28° 153° (SSE) 03:04:47 437.305
ITUPSAT 1 25 May 03:06:28 03:10:34 28° 265° (W) 03:14:37 437.325
DANDE 25 May 03:09:33 03:13:25 14° 282° (WNW) 03:16:30 436.750
ISS 25 May 03:10:19 03:11:34 12° 346° (NNW) 03:12:47 145.825
Gurwin Techsat 1B 25 May 03:15:40 03:20:33 37° 97° (E) 03:25:28 435.225
BEESAT 25 May 03:16:09 03:19:52 22° 267° (W) 03:23:29 436.000
GONETS M04 25 May 03:24:24 03:30:09 19° 279° (W) 03:35:25
SWISSCUBE 25 May 03:25:02 03:28:09 17° 269° (W) 03:31:04 437.505
BEESAT 3 25 May 03:28:32 03:32:02 27° 50° (NE) 03:35:32 437.485
STARS 25 May 03:28:51 03:33:12 58° 74° (ENE) 03:37:36 437.465
O/OREOS (USA 219) 25 May 03:31:42 03:35:36 29° 256° (WSW) 03:39:27 437.305
PCSat 25 May 03:43:48 03:47:24 17° 316° (NW) 03:50:51 145.827
AIST 2 25 May 03:50:31 03:52:33 13° 42° (NE) 03:54:44 435.215
KKS-1 25 May 03:55:36 03:59:52 42° 262° (W) 04:04:09 437.445
BEESAT 2 25 May 04:13:51 04:17:56 65° 57° (ENE) 04:21:57 435.950
JAS-2 25 May 04:21:08 04:25:18 25° 94° (E) 04:29:39 435.910
Cosmos 2499 25 May 04:22:30 04:28:47 35° 271° (W) 04:35:00 435.465 / 435.565
Oscar 19 25 May 04:23:21 04:26:20 15° 297° (WNW) 04:29:05 437.125/150
SO-50 25 May 04:25:11 04:29:52 88° 121° (ESE) 04:34:43 436.795
ITAMSAT 1 25 May 04:30:47 04:35:40 41° 290° (WNW) 04:40:31 435.822/435.867
VERMONT LUNAR 25 May 04:35:47 04:39:00 82° 348° (NNW) 04:42:13 437.305
PHONESAT 2.4 25 May 04:37:33 04:40:53 43° 156° (SSE) 04:44:11 2401.200-2431.200
HORYU 2 25 May 04:40:16 04:44:28 41° 98° (E) 04:48:39 437.375
Gurwin Techsat 1B 25 May 04:55:58 05:00:24 27° 293° (WNW) 05:04:44 435.225
BEESAT 3 25 May 05:06:33 05:09:57 25° 247° (WSW) 05:13:15 437.485
MOZHAYETS 4 25 May 05:08:13 05:12:48 83° 77° (ENE) 05:17:23
STARS 25 May 05:08:20 05:10:06 12° 271° (W) 05:11:37 437.465
AO-7 25 May 05:15:28 05:23:45 63° 103° (ESE) 05:32:02 29.400- 29.500
AIST 2 25 May 05:27:28 05:31:41 72° 241° (WSW) 05:35:48 435.215
JAS-2 25 May 06:05:55 06:10:36 34° 290° (WNW) 06:15:16 435.910
SO-50 25 May 06:08:29 06:11:10 14° 321° (NW) 06:13:44 436.795
VERMONT LUNAR 25 May 06:13:09 06:16:20 64° 5° (N) 06:19:31 437.305
PHONESAT 2.4 25 May 06:15:27 06:18:56 70° 354° (N) 06:22:24 2401.200-2431.200
M-CUBED/EXP-1 PRIME 25 May 06:16:29 06:17:49 12° 62° (ENE) 06:19:18 437.505
HORYU 2 25 May 06:17:50 06:20:50 18° 293° (WNW) 06:23:40 437.375
ISS 25 May 06:23:58 06:26:35 22° 26° (NNE) 06:29:12 145.825
AUBIESAT-1 25 May 06:26:16 06:28:01 13° 63° (ENE) 06:29:55 437.475
CUTE-I 25 May 06:28:38 06:31:41 16° 90° (E) 06:34:59 437.470
CUBESAT XI-V 25 May 06:40:56 06:45:28 62° 75° (ENE) 06:50:02 437.345
Cubesat XI-IV 25 May 06:47:38 06:51:55 25° 94° (E) 06:56:19 437.490
STRAND 1 25 May 07:07:59 07:12:53 52° 73° (ENE) 07:17:51 437.568
AO-7 25 May 07:09:04 07:16:04 30° 301° (WNW) 07:22:53 29.400- 29.500
Cosmos 2491 25 May 07:09:34 07:18:15 59° 78° (ENE) 07:26:55 435.465 / 435.565
PRISM 25 May 07:22:40 07:26:45 86° 76° (ENE) 07:30:51 437.425
AIST 1 25 May 07:33:14 07:35:10 13° 69° (ENE) 07:37:19
M-CUBED/EXP-1 PRIME 25 May 07:48:00 07:52:21 63° 254° (WSW) 07:56:21 437.505
VERMONT LUNAR 25 May 07:50:24 07:53:32 52° 201° (SSW) 07:56:39 437.305
PHONESAT 2.4 25 May 07:53:44 07:57:12 75° 9° (N) 08:00:40 2401.200-2431.200
AUBIESAT-1 25 May 07:58:17 08:02:31 55° 254° (WSW) 08:06:26 437.475
YUBILEINY 25 May 07:59:51 08:08:18 56° 91° (E) 08:16:47 435.215
ISS 25 May 08:00:00 08:03:10 48° 223° (SW) 08:06:20 145.825
CUTE-I 25 May 08:06:58 08:12:15 61° 287° (WNW) 08:17:32 437.470
CUBESAT XI-V 25 May 08:21:41 08:23:25 12° 272° (W) 08:24:52 437.345
Cubesat XI-IV 25 May 08:27:10 08:32:10 40° 290° (WNW) 08:37:06 437.490
RS-15 25 May 08:43:17 08:52:17 33° 107° (ESE) 09:01:44 29.354- 29.394
STRAND 1 25 May 08:49:05 08:52:28 17° 269° (W) 08:55:39 437.568
CANX-2 25 May 08:54:15 08:56:13 13° 90° (E) 08:58:23 2200.000
CUTE 1.7 + AOD 2 25 May 08:58:09 09:00:04 13° 90° (E) 09:02:14 437.475
Cosmos 2491 25 May 09:07:22 09:14:38 29° 276° (W) 09:21:35 435.465 / 435.565
DOVE 4 25 May 09:07:59 09:11:51 22° 91° (E) 09:15:42 437.250
AIST 1 25 May 09:08:58 09:13:13 50° 266° (W) 09:17:28
BRITE-PL 25 May 09:21:19 09:27:02 75° 101° (E) 09:32:28 437.365/2234.400
SEEDS 25 May 09:22:57 09:26:06 21° 93° (E) 09:29:20 437.485
VERMONT LUNAR 25 May 09:29:15 09:30:19 11° 214° (SW) 09:31:17 437.305
PHONESAT 2.4 25 May 09:31:58 09:35:13 37° 205° (SSW) 09:38:27 2401.200-2431.200
GOMX 1 25 May 09:34:18 09:39:42 64° 100° (E) 09:44:47 467.674
COMPASS 1 25 May 09:39:11 09:42:38 26° 95° (E) 09:46:08 437.405
HO-68 25 May 09:50:53 09:57:56 59° 101° (ESE) 10:04:58 435.675
AAUSAT CUBESAT 2 25 May 09:52:52 09:56:34 31° 96° (E) 10:00:17 437.432
YUBILEINY 25 May 09:58:00 10:05:38 31° 291° (WNW) 10:13:00 435.215
ANTELSAT 25 May 10:02:23 10:05:26 18° 67° (ENE) 10:08:39 437.575/2403.000
CUBEBUG 2 25 May 10:06:09 10:09:15 19° 91° (E) 10:12:23 437.445
ZACube-1 25 May 10:16:57 10:19:20 15° 90° (E) 10:21:52 437.345
NANOSAT C BR1 25 May 10:19:41 10:20:25 10° 64° (ENE) 10:21:23 145.865
QB50P2 25 May 10:25:02 10:26:54 13° 66° (ENE) 10:28:57 145.880/145.840
CANX-2 25 May 10:28:24 10:32:27 46° 286° (WNW) 10:36:28 2200.000
Cosmos 2504 25 May 10:28:55 10:36:58 52° 91° (E) 10:44:35 435.465 / 435.565
CUTE 1.7 + AOD 2 25 May 10:32:16 10:36:19 46° 287° (WNW) 10:40:20 437.475
Oscar 11 25 May 10:32:40 10:36:44 41° 98° (E) 10:40:48 145.826/435.025
DELFI C3 25 May 10:33:22 10:36:52 29° 96° (E) 10:40:24 145.870
TIGRISAT 25 May 10:34:45 10:39:03 37° 72° (ENE) 10:43:21 435.000
POPSAT HIP 1 25 May 10:36:52 10:39:35 17° 67° (ENE) 10:42:26 437.405
CINEMA 3 25 May 10:37:06 10:41:54 88° 108° (ESE) 10:46:26 145.822/145.860
DUCHIFAT 1 25 May 10:40:18 10:43:07 18° 68° (ENE) 10:46:06 145.980
DOVE 4 25 May 10:44:59 10:49:49 40° 289° (WNW) 10:54:21 437.250
PCSat 25 May 10:47:13 10:52:25 46° 56° (NE) 10:57:37 145.827
RS-15 25 May 10:53:09 11:03:59 66° 307° (NW) 11:15:06 29.354- 29.394
UNISAT 6 25 May 10:53:56 10:58:35 61° 74° (ENE) 11:03:12 437.425
UWE-3 25 May 10:56:43 11:01:04 56° 99° (E) 11:05:15 435.000/436.395/437.385
SEEDS 25 May 10:58:19 11:01:56 28° 289° (WNW) 11:05:30 437.485
BRITE-PL 25 May 11:01:33 11:04:52 16° 297° (WNW) 11:07:54 437.365/2234.400
AISAT 25 May 11:06:32 11:08:29 13° 90° (E) 11:10:40 437.250
BUGSAT 1 25 May 11:11:25 11:14:51 26° 70° (ENE) 11:18:24 437.445
FUNcube-1 25 May 11:11:58 11:16:17 64° 100° (E) 11:20:29 145.935
GOMX 1 25 May 11:13:50 11:17:14 17° 296° (WNW) 11:20:21 467.674
COMPASS 1 25 May 11:14:54 11:18:15 23° 290° (WNW) 11:21:30 437.405
QB50P1 25 May 11:19:33 11:23:40 50° 74° (ENE) 11:27:51 145.935-145.965
POLYITAN 1 25 May 11:20:24 11:24:35 53° 74° (ENE) 11:28:49 437.675
SO-50 25 May 11:20:55 11:21:07 10° 34° (NE) 11:21:32 436.795
AAUSAT CUBESAT 2 25 May 11:28:59 11:32:00 19° 291° (WNW) 11:34:53 437.432
ANTELSAT 25 May 11:37:23 11:41:55 45° 262° (W) 11:46:24 437.575/2403.000
HO-68 25 May 11:39:28 11:45:15 26° 298° (WNW) 11:50:50 435.675
CUBEBUG 2 25 May 11:42:00 11:46:07 35° 289° (WNW) 11:50:03 437.445
50 SAT 25 May 11:48:56 11:52:36 40° 98° (E) 11:56:15 437.505
NANOSAT C BR1 25 May 11:51:29 11:55:44 69° 259° (WSW) 12:00:02 145.865
ZACube-1 25 May 11:51:52 11:56:00 42° 287° (WNW) 12:00:00 437.345
UKube-1 25 May 11:57:21 12:01:44 90° 239° (WSW) 12:06:05 .
QB50P2 25 May 11:58:10 12:02:22 55° 260° (W) 12:06:36 145.880/145.840
HUMSAT D 25 May 12:01:15 12:05:26 74° 284° (WNW) 12:09:32 437.325/437.525
DX 1 25 May 12:03:18 12:07:42 72° 285° (WNW) 12:12:03 434.975-435.025
ESTCUBE 1 25 May 12:05:41 12:09:47 33° 97° (E) 12:13:55 437.505/2401.250
DELFI C3 25 May 12:08:51 12:11:50 20° 291° (WNW) 12:14:41 145.870
Oscar 11 25 May 12:09:50 12:12:37 17° 293° (WNW) 12:15:15 145.826/435.025
VELOX 1 25 May 12:10:02 12:14:30 65° 101° (E) 12:18:57 145.980
POPSAT HIP 1 25 May 12:11:08 12:15:11 40° 262° (W) 12:19:14 437.405
TIGRISAT 25 May 12:12:17 12:15:54 21° 267° (W) 12:19:23 435.000
CUBEBUG 1 25 May 12:13:56 12:18:01 36° 97° (E) 12:22:08 437.445
DUCHIFAT 1 25 May 12:14:43 12:18:41 37° 263° (W) 12:22:40 145.980
Cosmos 2504 25 May 12:23:22 12:30:40 31° 289° (WNW) 12:37:24 435.465 / 435.565
Oscar 19 25 May 12:23:56 12:24:18 10° 61° (ENE) 12:25:00 437.125/150
PCSat 25 May 12:31:18 12:35:35 23° 252° (WSW) 12:39:41 145.827
GONETS M04 25 May 12:31:46 12:37:04 19° 81° (E) 12:42:53
UNISAT 6 25 May 12:33:40 12:35:48 13° 271° (W) 12:37:40 437.425
UWE-3 25 May 12:35:02 12:37:08 13° 295° (WNW) 12:39:00 435.000/436.395/437.385
AISAT 25 May 12:41:04 12:45:29 54° 286° (WNW) 12:49:51 437.250
BUGSAT 1 25 May 12:46:57 12:50:19 23° 266° (W) 12:53:37 437.445
DANDE 25 May 12:49:41 12:54:36 22° 82° (E) 13:00:29 436.750
FUNcube-1 25 May 12:50:42 12:52:06 11° 296° (WNW) 12:53:16 145.935
QB50P1 25 May 12:57:52 12:59:54 13° 270° (W) 13:01:42 145.935-145.965
SO-50 25 May 12:57:56 13:02:50 56° 55° (NE) 13:07:39 436.795
POLYITAN 1 25 May 12:58:58 13:00:53 12° 271° (W) 13:02:34 437.675
SPROUT 25 May 13:00:05 13:03:56 31° 96° (E) 13:07:48 437.525
JUGNU 25 May 13:05:12 13:06:47 11° 177° (S) 13:08:24 437.505
RS-15 25 May 13:10:50 13:19:14 23° 336° (NNW) 13:27:37 29.354- 29.394
50 SAT 25 May 13:24:57 13:27:01 14° 293° (WNW) 13:28:53 437.505
TISAT 1 25 May 13:30:22 13:34:32 49° 99° (E) 13:38:40 437.305
CUSAT 1 25 May 13:30:57 13:37:47 58° 93° (E) 13:45:50 437.405
ESTCUBE 1 25 May 13:42:58 13:46:29 22° 292° (WNW) 13:49:53 437.505/2401.250
VELOX 1 25 May 13:48:43 13:50:35 12° 296° (WNW) 13:52:12 145.980
SWISSCUBE 25 May 13:48:45 13:50:56 13° 90° (E) 13:53:21 437.505
CUBEBUG 1 25 May 13:50:52 13:54:10 20° 292° (WNW) 13:57:21 437.445
Oscar 19 25 May 13:57:44 14:02:56 83° 77° (ENE) 14:08:10 437.125/150
ITAMSAT 1 25 May 14:08:41 14:13:07 31° 69° (ENE) 14:17:41 435.822/435.867
SRMSAT 25 May 14:19:29 14:20:30 10° 174° (S) 14:21:34 437.500
GONETS M04 25 May 14:24:06 14:32:57 84° 278° (W) 14:41:52
AO-7 25 May 14:25:01 14:29:24 16° 51° (NE) 14:34:12 29.400- 29.500
DANDE 25 May 14:30:04 14:36:53 72° 282° (WNW) 14:45:13 436.750
JAS-2 25 May 14:35:00 14:37:09 12° 62° (ENE) 14:39:36 435.910
Gurwin Techsat 1B 25 May 14:35:24 14:40:30 51° 73° (ENE) 14:45:41 435.225
SPROUT 25 May 14:36:31 14:39:52 22° 291° (WNW) 14:43:07 437.525
SO-50 25 May 14:39:43 14:42:59 17° 250° (WSW) 14:46:01 436.795
Cosmos 2499 25 May 15:04:05 15:11:07 34° 88° (E) 15:17:53 435.465 / 435.565
ITUPSAT 1 25 May 15:07:23 15:12:12 83° 104° (ESE) 15:16:59 437.325
TISAT 1 25 May 15:07:36 15:09:55 14° 294° (WNW) 15:12:02 437.305
CUSAT 1 25 May 15:14:42 15:21:04 30° 294° (WNW) 15:27:58 437.405
BEESAT 25 May 15:16:15 15:21:02 79° 284° (WNW) 15:25:48 436.000
STARS 25 May 15:22:08 15:23:38 12° 89° (E) 15:25:23 437.465
SWISSCUBE 25 May 15:24:32 15:29:15 59° 286° (WNW) 15:33:56 437.505
RS-15 25 May 15:30:12 15:37:25 18° 11° (NNE) 15:45:01 29.354- 29.394
HORYU 2 25 May 15:37:20 15:41:20 33° 71° (ENE) 15:45:24 437.375
Oscar 19 25 May 15:41:59 15:43:03 10° 273° (W) 15:43:43 437.125/150
KKS-1 25 May 15:47:54 15:52:07 39° 98° (E) 15:56:18 437.445
ITAMSAT 1 25 May 15:48:05 15:52:37 30° 264° (W) 15:57:06 435.822/435.867
O/OREOS (USA 219) 25 May 16:03:13 16:07:17 34° 105° (ESE) 16:11:24 437.305
SRMSAT 25 May 16:07:18 16:08:46 11° 184° (S) 16:10:13 437.500
AO-7 25 May 16:12:44 16:20:58 74° 70° (ENE) 16:29:17 29.400- 29.500
JAS-2 25 May 16:14:47 16:21:41 80° 75° (ENE) 16:27:46 435.910
Gurwin Techsat 1B 25 May 16:17:09 16:20:52 18° 269° (W) 16:24:23 435.225
DANDE 25 May 16:17:55 16:22:04 15° 305° (NW) 16:26:01 436.750
GONETS M04 25 May 16:26:04 16:31:28 16° 300° (WNW) 16:36:20
ITUPSAT 1 25 May 16:48:16 16:49:30 11° 298° (WNW) 16:50:25 437.325
STARS 25 May 16:56:10 17:00:32 58° 286° (WNW) 17:04:51 437.465
Cosmos 2499 25 May 16:56:18 17:04:08 45° 284° (WNW) 17:11:22 435.465 / 435.565
MOZHAYETS 4 25 May 17:05:23 17:08:49 21° 93° (E) 17:12:22
HORYU 2 25 May 17:14:36 17:18:04 21° 266° (W) 17:21:26 437.375
KKS-1 25 May 17:25:18 17:28:29 19° 293° (WNW) 17:31:32 437.445
O/OREOS (USA 219) 25 May 17:43:17 17:46:50 22° 302° (WNW) 17:50:17 437.305
RS-15 25 May 17:43:29 17:54:12 42° 43° (NE) 18:05:31 29.354- 29.394
CUTE-I 25 May 17:49:01 17:53:07 24° 66° (ENE) 17:57:21 437.470
JAS-2 25 May 18:03:25 18:07:18 15° 270° (W) 18:10:36 435.910
BEESAT 2 25 May 18:07:40 18:10:13 17° 111° (ESE) 18:12:56 435.950
Cubesat XI-IV 25 May 18:08:20 18:13:06 36° 70° (ENE) 18:17:58 437.490
AO-7 25 May 18:08:21 18:14:38 22° 269° (W) 18:20:33 29.400- 29.500
YUBILEINY 25 May 18:12:17 18:18:59 25° 66° (ENE) 18:25:58 435.215
Cosmos 2491 25 May 18:19:47 18:21:44 11° 77° (ENE) 18:24:29 435.465 / 435.565
CUBESAT XI-V 25 May 18:39:56 18:42:59 18° 91° (E) 18:46:13 437.345
MOZHAYETS 4 25 May 18:42:01 18:46:09 34° 289° (WNW) 18:50:14
BEESAT 3 25 May 18:57:10 19:01:14 76° 118° (ESE) 19:05:21 437.485
PRISM 25 May 19:07:57 19:09:48 13° 91° (E) 19:11:51 437.425
STRAND 1 25 May 19:20:40 19:24:15 19° 92° (E) 19:28:00 437.568
AIST 2 25 May 19:24:15 19:28:02 32° 114° (ESE) 19:31:53 435.215
CUTE-I 25 May 19:27:58 19:32:58 41° 262° (W) 19:37:59 437.470
BEESAT 2 25 May 19:44:06 19:48:01 41° 306° (NW) 19:51:58 435.950
Cubesat XI-IV 25 May 19:48:49 19:53:18 27° 266° (W) 19:57:43 437.490
RS-15 25 May 19:55:52 20:07:21 63° 245° (WSW) 20:19:12 29.354- 29.394
YUBILEINY 25 May 20:08:02 20:16:39 67° 267° (W) 20:25:12 435.215
Cosmos 2491 25 May 20:08:30 20:17:11 71° 94° (E) 20:26:00 435.465 / 435.565
DOVE 4 25 May 20:12:06 20:15:48 21° 66° (ENE) 20:19:45 437.250
SEEDS 25 May 20:15:01 20:17:06 14° 67° (ENE) 20:19:21 437.485
CUBESAT XI-V 25 May 20:16:13 20:20:41 43° 287° (WNW) 20:25:07 437.345
HO-68 25 May 20:18:09 20:24:38 39° 66° (ENE) 20:31:13 435.675
Cosmos 2504 25 May 20:25:21 20:28:29 14° 61° (ENE) 20:32:06 435.465 / 435.565
COMPASS 1 25 May 20:30:08 20:32:41 16° 68° (ENE) 20:35:22 437.405
BRITE-PL 25 May 20:30:18 20:35:16 71° 76° (ENE) 20:40:41 437.365/2234.400
BEESAT 3 25 May 20:37:56 20:39:47 12° 318° (NW) 20:41:29 437.485
GOMX 1 25 May 20:40:24 20:45:21 58° 74° (ENE) 20:50:40 467.674
PRISM 25 May 20:41:34 20:45:33 46° 287° (WNW) 20:49:32 437.425
AAUSAT CUBESAT 2 25 May 20:43:07 20:46:03 19° 69° (ENE) 20:49:06 437.432
STRAND 1 25 May 20:58:48 21:03:44 46° 289° (WNW) 21:08:37 437.568
AIST 2 25 May 21:03:06 21:06:40 25° 311° (NW) 21:10:11 435.215
CUBEBUG 2 25 May 21:03:27 21:06:18 16° 66° (ENE) 21:09:21 437.445
M-CUBED/EXP-1 PRIME 25 May 21:05:24 21:08:40 59° 290° (WNW) 21:11:56 437.505
ZACube-1 25 May 21:12:39 21:14:24 12° 65° (ENE) 21:16:23 437.345
AUBIESAT-1 25 May 21:15:00 21:18:13 51° 290° (WNW) 21:21:27 437.475
CANX-2 25 May 21:19:34 21:23:50 79° 258° (WSW) 21:28:07 2200.000
DELFI C3 25 May 21:20:32 21:22:58 16° 68° (ENE) 21:25:33 145.870
CUTE 1.7 + AOD 2 25 May 21:23:21 21:27:37 79° 258° (WSW) 21:31:54 437.475
Oscar 11 25 May 21:26:25 21:30:05 28° 71° (ENE) 21:33:49 145.826/435.025
CINEMA 3 25 May 21:36:36 21:41:32 70° 76° (ENE) 21:46:35 145.822/145.860
AIST 1 25 May 21:36:45 21:41:00 80° 278° (W) 21:45:18
